User: anonymous
Location: Unspecified
(0.0000°N, 0.0000°E)
Time: 05:06:34
(UTC+00:00)
Language:

Optus B1 - Orbit

View from above orbital plane
View from above orbital plane
View from above satellite
View from above satellite

Ground track
Ground track

The orbit data is extracted from the following two-line orbital elements,

1 22087U 92054A   14206.43827648 -.00000279  00000-0  00000+0 0  9576
2 22087 006.9624 055.2708 0012537 038.3049 131.1846 00.99206646 91590
Epoch (UTC): 25 July 2014 10:31:07
Eccentricity: 0.0012537
inclination: 6.9624°
perigee height: 36034 km
apogee height: 36141 km
right ascension of ascending node: 55.2708°
argument of perigee: 38.3049°
revolutions per day: 0.99206646
mean anomaly at epoch: 131.1846°
orbit number at epoch: 9159

The dashed part of the orbit path shows where the satellite is in the earth's shadow,  

DLR